Regional Weather Roundup
Issued by NWS

Home | Current Version | Previous Version | Text Only | Print | Product List | Glossary Off
Versions: 1 2 3 4 5 6 7 8 9 10 11 12 13 14 15 16 17 18 19 20 21 22 23 24 25 26 27 28 29 30 31 32 33 34 35 36 37 38 39 40 41 42 43 44 45 46 47 48 49

000
ASUS43 KDMX 290907
RWRIA

WEATHER ROUNDUP FOR IOWA
NATIONAL WEATHER SERVICE DES MOINES IA
400 AM CDT WED JUL 29 2015

NOTE: "FAIR" INDICATES FEW OR NO CLOUDS BELOW 12,000 FEET WITH NO
SIGNIFICANT WEATHER AND/OR OBSTRUCTIONS TO VISIBILITY.

* - THESE STATIONS ARE NOT NWS STATIONS...THUS NOT UNDER NWS
QUALITY CONTROL.  THEY ALSO DO NOT REPORT WEATHER SUCH
AS PRECIPITATION OR FOG.

IAZ001>003-012>014-020>022-031>034-043>046-291000-
   NORTHWEST IOWA

CITY           SKY/WX    TMP DP  RH WIND       PRES   REMARKS
CARROLL *      CLEAR     63  63 100 W6        30.07R
CHEROKEE *       N/A     57  57 100 CALM      30.09R FOG
DENISON *      CLEAR     59  59 100 CALM      30.07S FOG
LE MARS *      CLEAR     55  55 100 S3        30.10R
ORANGE CITY *  CLEAR     59  55  88 CALM      30.09R
SHELDON *      CLEAR     54  52  94 W3        30.06S
SIOUX CITY     CLEAR     60  57  89 W3        30.10R
SPENCER        CLEAR     58  54  86 CALM      30.07R
STORM LAKE *   CLEAR     63  59  88 NW8       30.10R
$$

IAZ055>058-069>071-079>083-090>094-291000-
   SOUTHWEST IOWA

CITY           SKY/WX    TMP DP  RH WIND       PRES   REMARKS
ATLANTIC *     CLEAR     66  64  94 CALM      30.07R
AUDUBON *      CLEAR     63  61  94 CALM      30.09R
CLARINDA *     CLOUDY    72  72 100 N5        30.08R
COUNCIL BLFS * CLEAR     64  63  94 N6        30.08S
CRESTON *      CLOUDY    70  70 100 SE5       30.08R
HARLAN  *      CLEAR     61  61 100 CALM      30.11S
LAMONI         LGT RAIN  72  70  93 NW3       30.08R
RED OAK *      MOCLDY    66  66 100 N6        30.07R
SHENANDOAH *     N/A     70  66  88 NE5       30.07S
$$

IAZ047>049-059>061-072>074-084-291000-
   CENTRAL IOWA

CITY           SKY/WX    TMP DP  RH WIND       PRES   REMARKS
AMES           CLOUDY    68  66  93 W5        30.03R
ANKENY *       CLOUDY    72  70  94 NW5       30.03R
CHARITON *     CLOUDY    70  70 100 W6        30.05R
DES MOINES     CLOUDY    73  70  90 CALM      30.03R
GRINNELL*      CLOUDY    70  68  94 SW3       30.03R
KNOXVILLE *    CLOUDY    70  68  94 W7        30.02R
MARSHALLTOWN   CLOUDY    69  66  90 NW7       30.01R
PELLA *        CLOUDY    70  70 100 NW8       30.03S
PERRY *          N/A     66  64  94 W6        30.05R
$$

IAZ004>006-015-016-023>025-035-036-291000-
   NORTH CENTRAL IOWA

CITY           SKY/WX    TMP DP  RH WIND       PRES   REMARKS
ALGONA *       CLEAR     61  59  94 W7        30.06R
CLARION *      CLEAR     61  59  94 CALM      30.05R
ESTHERVILLE    PTCLDY    57  55  93 SW6       30.05R
FORT DODGE *   CLOUDY    63  59  88 W5        30.07R
MASON CITY     MOCLDY    62  60  93 W10       30.04R
FOREST CITY *  CLEAR     61  59  94 W3        30.04R
IOWA FALLS *   MOCLDY    66  63  88 NW5       30.04R
$$

IAZ007>011-017>019-026>030-037>042-050>054-066-291000-
   NORTHEAST IOWA

CITY           SKY/WX    TMP DP  RH WIND       PRES   REMARKS
CEDAR RAPIDS   CLOUDY    71  71 100 NW8       29.98S
CHARLES CITY * PTCLDY    66  64  94 W8        30.02R
CLINTON *      CLOUDY    73  70  88 W7        29.98R
DECORAH *      CLOUDY    72  63  73 VRB7G13   29.98R
DUBUQUE        CLOUDY    73  70  90 W7        29.98R
MONTICELLO *   CLOUDY    73  72  94 W3        29.98S
OELWEIN *        N/A     70  68  94 CALM      30.01R
WATERLOO       CLOUDY    70  65  84 NW5       29.98F
$$

IAZ064-065-067-068-078-291000-
   EAST CENTRAL IOWA

CITY           SKY/WX    TMP DP  RH WIND       PRES   REMARKS
DAVENPORT      CLOUDY    73  70  90 W7        29.97R
IOWA CITY      LGT RAIN  72  70  93 NW10      29.99S
MT. PLEASANT * LGT RAIN  73  70  88 CALM      30.02R
MUSCATINE *    CLOUDY    73  70  88 SW5       29.99R
QUAD CITIES    LGT RAIN  75  71  87 W9        29.96R
$$

IAZ062-063-075>077-085>089-095>099-291000-
   SOUTHEAST IOWA

CITY           SKY/WX    TMP DP  RH WIND       PRES   REMARKS
BURLINGTON     CLOUDY    73  71  93 NW8       30.00R
FAIRFIELD *    LGT RAIN  70  68  94 NW6       30.01S
FORT MADISON * LGT RAIN  72  72 100 NW10      30.02R
KEOKUK *       PTCLDY    73  70  88 NW12      29.99R
OSKALOOSA *    LGT RAIN  70  68  94 W7        30.02R
CENTERVILLE *  RAIN      70  70 100 NW3       30.04S
OTTUMWA        LGT RAIN  70  70 100 W7        30.01R
WASHINGTON *   LGT RAIN  72  70  94 W6        30.01S
$$

ABBREVIATIONS USED IN REMARKS
   TC - TEMPERATURES IN CELSIUS
  WCI - WIND CHILL INDEX
   HX - HEAT INDEX
  VSB - VISIBILITY
$$



USA.gov is the U.S. government's official web portal to all federal, state and local government web resources and services.